Weather Roundup
Issued by NWS Corpus Christi, TX

Home | Current Version | Previous Version | Text Only | Print | Product List | Glossary On
Versions: 1 2 3 4 5 6 7 8 9 10 11 12 13 14 15 16 17 18 19 20 21 22 23 24 25 26 27 28 29 30 31 32 33 34 35 36 37 38 39 40 41 42 43 44 45 46 47 48 49 50
000
ASUS44 KCRP 301210
HRRCRP

SOUTH TEXAS REGIONAL WEATHER ROUNDUP
NATIONAL WEATHER SERVICE CORPUS CHRISTI TX
700 AM CDT SUN AUG 30 2015


TXZ229>244-301300-
...CORPUS CHRISTI AREA OBSERVATIONS...

CITY           SKY/WX    TMP DP  RH WIND       PRES   REMARKS
CORPUS CHRISTI PTCLDY    74  66  76 NE3       29.98R
NAS CORPUS CHR MOCLDY    77  72  84 NW3       29.97R
ROCKPORT       PTCLDY    72  67  84 CALM      29.98R
KINGSVILLE NAS CLEAR     71  66  84 NE3       29.98R
ALICE          CLEAR     68  64  87 N3        29.98R
FALFURRIAS     MOCLDY    71  67  86 CALM      29.98R
$$

...VICTORIA AREA OBSERVATIONS...

CITY           SKY/WX    TMP DP  RH WIND       PRES   REMARKS
VICTORIA       PTCLDY    69  68  96 N5        30.01R
BEEVILLE       FAIR      67  66  97 N5        30.00R
PLEASANTON     CLOUDY    71  64  76 N3        30.03R
SAN ANTONIO    CLOUDY    76  64  66 CALM      30.04R
$$

...LAREDO AREA OBSERVATIONS...

CITY           SKY/WX    TMP DP  RH WIND       PRES   REMARKS
LAREDO         CLOUDY    76  72  87 CALM      30.00R
COTULLA        CLOUDY    73  65  75 NE7       30.00R
DEL RIO        CLOUDY    77  61  57 E8        30.00S
MCALLEN        PTCLDY    80  73  79 E5        29.97R
HEBBRONVILLE   NOT AVBL
$$

...OTHER TEXAS OBSERVATIONS...

CITY           SKY/WX    TMP DP  RH WIND       PRES   REMARKS
BROWNSVILLE    CLEAR     74  73  97 SE3       29.95R
HOUSTON        MOCLDY    70  66  87 CALM      30.01R
COL. STATION   CLOUDY    74  68  81 CALM      30.02R
AUSTIN         CLOUDY    73  67  81 CALM      30.02R
WACO           LGT RAIN  77  67  71 S12       30.01R
FORT WORTH     CLOUDY    76  66  71 S7        29.97S
WICHITA FALLS  PTCLDY    66  57  72 SW8       29.98R
LUBBOCK        PTCLDY    58  54  86 W6        30.12R
EL PASO        PTCLDY    71  55  56 E3        30.12S
$$

...MARINE OBSERVATIONS...

STATION/POSITION TIME  SKY/WX   TEMP    WIND        PRES    VSBY  WAVE   SWELL
                                AIR SEA DIR/SP/G                  HT/PER HT/PER
                 (UTC)          (F)     (DEG/KT/KT) (MB)    (MI)  (FT/S) (FT/S)
PORT ARANSAS     1200            83 85  130/  7/  8 1015.9R
BUOY 90 E PORT A 1150            83 85  140/  8/ 10 1015.1R         1/ 3
BUOY 45 SE BAFFI 1150            83 85  150/  8/ 10 1014.4R         1/ 3   2/ 4
BUOY 200 E PT IS 1150            84 85  120/  4/  6 1015.2R         1/ 5
BUOY 15 E GALVES 1150            83 85  150/  4/  6 1015.5R         1
$$



USA.gov is the U.S. government's official web portal to all federal, state and local government web resources and services.